Paganella, Italy

4:32 AM CEST on April 26, 2018 (GMT +0200)
Paganella

Weather History for LIVP - December, 2013

Change the Weather History Date:

Sunday, December 15, 2013

  Actual Average Record
Temperature  
Mean Temperature 26 °F -  
Max Temperature 32 °F 29 °F 44 °F (1998)
Min Temperature 19 °F 20 °F 1 °F (2010)
Degree Days  
Heating Degree Days 40    
Moisture  
Dew Point 8 °F    
Average Humidity 42    
Maximum Humidity 100    
Minimum Humidity 14    
Precipitation  
Precipitation 0.00 in 0.04 in - ()
Sea Level Pressure  
Sea Level Pressure 30.36 in    
Wind  
Wind Speed 10 mph ()    
Max Wind Speed 21 mph    
Max Gust Speed -    
Visibility 8.3 miles    
Events Fog , Snow    
Averages and records for this station are not official NWS values.
T = Trace of Precipitation, MM = Missing Value Source: Averaged Metar Reports

Daily Weather History Graph

Daily Weather History Graph

Search for Another Location

Airport or City:

Astronomy

Dec. 15, 2013 Rise Set
Actual Time 7:51 AM CET 4:30 PM CET
Civil Twilight 7:16 AM CET 5:05 PM CET
Nautical Twilight 6:38 AM CET 5:43 PM CET
Astronomical Twilight 6:02 AM CET 6:19 PM CET
Moon 3:26 PM CET (12/15) 5:48 AM CET (12/15)
Length of Visible Light 9h 48m
Length of Day
8h 38m
Waxing Gibbous, 97% of the Moon is Illuminated
Dec 15
Waxing Gibbous
Dec 17
Full
Dec 25
Last Quarter
Jan 1
New
Jan 8
First Quarter

Hourly Weather History & Observations

Time (CET) Temp. Windchill Dew Point Humidity Pressure Visibility Wind Dir Wind Speed Gust Speed Precip Events Conditions
12:00 AM 23 °F - 18 °F 73%  in 16 mi North 18.4 mph - -   Mostly Cloudy
12:55 AM 21.2 °F 5.6 °F 21.2 °F 100% 30.24 in 0.3 mi North 20.7 mph - N/A Fog , Snow Light Snow
1:00 AM 21 °F - 20 °F 97%  in 0 mi North 20.7 mph - - Snow Light Snow
1:55 AM 21.2 °F 5.6 °F 19.4 °F 93% 30.27 in 0.4 mi North 20.7 mph - N/A   Unknown
2:55 AM 21.2 °F 8.3 °F 17.6 °F 86% 30.27 in 6.2 mi North 13.8 mph - N/A   Scattered Clouds
3:55 AM 21.2 °F 9.5 °F 17.6 °F 86% 30.27 in - North 11.5 mph - N/A   Clear
4:55 AM 21.2 °F 10.1 °F 12.2 °F 68% 30.27 in - North 10.4 mph - N/A   Clear
5:00 AM 22 °F - 13 °F 56%  in 16 mi North 10.4 mph - -   Scattered Clouds
5:55 AM 21.2 °F 10.9 °F 12.2 °F 68% 30.30 in - North 9.2 mph - N/A   Clear
6:55 AM 23.0 °F 13.1 °F 10.4 °F 59% 30.30 in - North 9.2 mph - N/A   Clear
7:00 AM 22 °F - 10 °F 47%  in 19 mi North 9.2 mph - -   Partly Cloudy
7:55 AM 23.0 °F 12.4 °F 6.8 °F 50% 30.30 in - North 10.4 mph - N/A   Clear
8:55 AM 23.0 °F 12.4 °F 6.8 °F 50% 30.30 in - North 10.4 mph - N/A   Clear
9:55 AM 24.8 °F 16.1 °F 5.0 °F 43% 30.36 in - North 8.1 mph - N/A   Clear
10:00 AM 25 °F - 5 °F 27%  in 25 mi North 8.1 mph - -   Scattered Clouds
10:55 AM 26.6 °F 20.0 °F 3.2 °F 37% 30.39 in - North 5.8 mph - N/A   Clear
11:00 AM 27 °F - 4 °F 23%  in 25 mi North 5.8 mph - -   Scattered Clouds
11:55 AM 28.4 °F 24.6 °F 10.4 °F 47% 30.39 in - Variable 3.5 mph - N/A   Clear
12:00 PM 29 °F - 11 °F 32%  in 31 mi 3.5 mph - -   Scattered Clouds
12:55 PM 30.2 °F - 5.0 °F 34% 30.39 in - Variable 2.3 mph - N/A   Clear
1:00 PM 31 °F - 5 °F 19%  in 31 mi 2.3 mph - -   Scattered Clouds
1:55 PM 32.0 °F - 1.4 °F 27% 30.39 in - North 2.3 mph - N/A   Clear
2:00 PM 32 °F - 2 °F 15%  in 31 mi North 2.3 mph - -   Scattered Clouds
2:55 PM 32.0 °F 27.5 °F 1.4 °F 27% 30.39 in - North 4.6 mph - N/A   Clear
3:00 PM 32 °F - 1 °F 14%  in 31 mi North 4.6 mph - -   Scattered Clouds
3:55 PM 32.0 °F 27.5 °F 1.4 °F 27% 30.39 in - North 4.6 mph - N/A   Clear
4:00 PM 32 °F - 1 °F 14%  in 31 mi North 4.6 mph - -   Scattered Clouds
4:55 PM 32.0 °F 26.4 °F 3.2 °F 30% 30.39 in - NNW 5.8 mph - N/A   Clear
5:00 PM 32 °F - 3 °F 16%  in 31 mi NNW 5.8 mph - -   Scattered Clouds
5:55 PM 32.0 °F 27.5 °F 6.8 °F 35% 30.42 in - North 4.6 mph - N/A   Clear
6:55 PM 32.0 °F 26.4 °F 6.8 °F 35% 30.42 in - North 5.8 mph - N/A   Clear
7:00 PM 32 °F - 7 °F 21%  in 31 mi North 5.8 mph - -   Scattered Clouds
7:55 PM 32.0 °F 26.4 °F 6.8 °F 35% 30.42 in - North 5.8 mph - N/A   Clear
8:00 PM 32 °F - 7 °F 21%  in 31 mi North 5.8 mph - -  
8:55 PM 32.0 °F 25.6 °F 6.8 °F 35% 30.45 in - North 6.9 mph - N/A   Clear
9:00 PM 32 °F - 7 °F 21%  in 31 mi North 6.9 mph - -  
9:55 PM 32.0 °F 25.6 °F 8.6 °F 38% 30.45 in - North 6.9 mph - N/A   Clear
10:00 PM 32 °F - 8 °F 22%  in 31 mi North 6.9 mph - -  
10:55 PM 32.0 °F 25.6 °F 8.6 °F 38% 30.48 in - North 6.9 mph - N/A   Clear
11:00 PM 32 °F - 8 °F 22%  in 31 mi North 6.9 mph - -  
11:55 PM 32.0 °F 25.6 °F 8.6 °F 38% 30.48 in - North 6.9 mph - N/A   Clear